Satellite-Ground Cal/Val Region Overpasses Predictions

Prediction of Satellite NPP Overpassing Cal/Val Region: PacNW

Region Location: (Latitude: 10.00, Longitude: 139.50) to (Latitude: 22.70, Longitude: 165.60).

Table of predicted overpasses for the next 14.0 days since TLE Epoch: 10/19/2019
Interval Starting Time Starting Location Ending Time Ending Location
1 10/20/2019 02:58:38 ( 10.03, 155.10) 10/20/2019 03:02:13 ( 22.65, 152.11)
2 10/20/2019 15:30:30 ( 22.69, 152.33) 10/20/2019 15:34:06 ( 10.01, 149.32)
3 10/21/2019 02:39:35 ( 10.01, 159.87) 10/21/2019 02:43:11 ( 22.69, 156.85)
4 10/21/2019 15:11:29 ( 22.65, 157.08) 10/21/2019 15:15:04 ( 10.03, 154.08)
5 10/22/2019 02:20:34 ( 10.05, 164.61) 10/22/2019 02:24:09 ( 22.67, 161.62)
6 10/22/2019 14:52:26 ( 22.67, 161.84) 10/22/2019 14:56:01 ( 10.05, 158.84)
7 10/23/2019 03:43:01 ( 10.04, 144.00) 10/23/2019 03:46:36 ( 22.66, 141.00)
8 10/23/2019 14:34:34 ( 18.58, 165.59) 10/23/2019 14:37:00 ( 10.00, 163.59)
9 10/23/2019 16:14:54 ( 22.68, 141.22) 10/23/2019 16:16:55 ( 15.58, 139.50)
10 10/24/2019 03:23:59 ( 10.02, 148.76) 10/24/2019 03:27:34 ( 22.65, 145.76)
11 10/24/2019 15:55:52 ( 22.69, 145.98) 10/24/2019 15:59:28 ( 10.01, 142.97)
12 10/25/2019 03:04:56 ( 10.01, 153.52) 10/25/2019 03:08:32 ( 22.69, 150.51)
13 10/25/2019 15:36:50 ( 22.65, 150.73) 10/25/2019 15:40:25 ( 10.03, 147.73)
14 10/26/2019 02:45:55 ( 10.05, 158.27) 10/26/2019 02:49:30 ( 22.67, 155.27)
15 10/26/2019 15:17:48 ( 22.67, 155.49) 10/26/2019 15:21:23 ( 10.05, 152.49)
16 10/27/2019 02:26:52 ( 10.03, 163.03) 10/27/2019 02:30:27 ( 22.66, 160.03)
17 10/27/2019 14:58:45 ( 22.68, 160.25) 10/27/2019 15:02:21 ( 10.00, 157.24)
18 10/28/2019 02:10:29 ( 19.36, 165.60) 10/28/2019 02:11:26 ( 22.70, 164.78)
19 10/28/2019 03:49:20 ( 10.03, 142.41) 10/28/2019 03:52:49 ( 22.30, 139.50)
20 10/28/2019 14:39:43 ( 22.70, 165.01) 10/28/2019 14:43:19 ( 10.02, 162.00)
21 10/28/2019 16:21:13 ( 22.69, 139.64) 10/28/2019 16:21:22 ( 22.16, 139.50)
22 10/29/2019 03:30:17 ( 10.01, 147.17) 10/29/2019 03:33:53 ( 22.69, 144.16)
23 10/29/2019 16:02:11 ( 22.65, 144.38) 10/29/2019 16:05:46 ( 10.03, 141.39)
24 10/30/2019 03:11:16 ( 10.05, 151.92) 10/30/2019 03:14:51 ( 22.68, 148.92)
25 10/30/2019 15:43:09 ( 22.66, 149.14) 10/30/2019 15:46:44 ( 10.04, 146.15)
26 10/31/2019 02:52:14 ( 10.04, 156.68) 10/31/2019 02:55:49 ( 22.66, 153.68)
27 10/31/2019 15:24:06 ( 22.68, 153.90) 10/31/2019 15:27:41 ( 10.06, 150.91)
28 11/01/2019 02:33:11 ( 10.03, 161.44) 11/01/2019 02:36:46 ( 22.65, 158.44)
29 11/01/2019 15:05:04 ( 22.69, 158.66) 11/01/2019 15:08:40 ( 10.01, 155.65)
30 11/02/2019 02:14:54 ( 12.66, 165.59) 11/02/2019 02:17:45 ( 22.69, 163.19)
31 11/02/2019 03:55:39 ( 10.02, 140.82) 11/02/2019 03:57:16 ( 15.72, 139.50)


NCC Satellite Cal/Val Overpasses Prediction Service
